EHI
4 6 8 6 4 3 3 4 4 3 1 0 0 0 0 0 0 1 2 2 1 0 1 0 0 0 0 0 0 0 0 0 0 0 0 0 0 0 0 0 0 0 0
4 7 8 6 4 4 3 3 3 2 0 0 0 0 0 0 0 0 1 1 0 0 1 1 1 0 0 0 0 0 0 0 0 0 0 0 0 0 0 0 0 0 0
4 6 7 7 6 4 3 2 2 1 0 0 0 0 0 0 0 0 0 0 0 0 1 2 2 0 0 0 0 0 0 0 0 0 0 0 0 0 0 0 0 0 0
2 4 5 7 6 3 2 2 2 1 0 0 0 0 0 0 0 0 0 0 0 0 0 1 1 0 0 0 0 0 0 0 0 0 0 0 0 0 0 0 0 0 0
2 2 4 7 7 4 2 2 3 2 0 0 0 0 0 0 0 0 0 0 0 0 0 0 0 0 0 0 0 0 0 0 0 0 0 0 0 0 0 0 0 0 0
5 4 5 7 7 5 3 3 2 1 0 0 0 0 0 0 0 0 0 0 0 0 0 0 0 0 0 0 0 0 0 0 0 0 0 0 0 0 0 0 0 0 0
7 7 7 6 5 4 3 3 2 1 0 0 0 0 0 0 0 0 0 0 0 0 0 0 0 0 0 0 0 0 0 0 0 0 0 0 0 0 0 0 0 0 0
5 6 6 6 4 2 1 1 1 0 0 0 0 0 0 0 0 0 0 0 0 0 0 0 0 0 0 0 0 0 0 0 0 0 0 0 0 0 0 0 0 0 0
2 3 4 4 3 1 0 0 0 0 0 0 0 0 0 0 0 0 0 0 0 0 0 0 0 0 0 0 0 0 0 0 0 0 0 0 0 0 0 0 0 0 0
1 1 2 3 2 1 0 0 0 0 0 0 0 0 0 0 0 0 0 0 0 0 0 0 0 0 0 0 0 0 0 0 0 0 0 0 0 0 0 0 0 0 0
2 1 1 2 3 2 1 0 0 0 0 0 0 0 0 0 0 0 0 0 0 0 0 0 0 0 0 0 0 0 0 0 0 0 0 0 0 0 0 0 0 0 0
2 1 1 2 3 3 2 1 0 0 0 0 0 0 0 0 0 0 0 0 0 0 0 0 0 0 0 0 0 0 0 0 0 0 0 0 0 0 0 0 0 0 0
1 2 1 2 3 3 3 1 0 0 0 0 0 0 0 0 0 0 0 0 0 0 0 0 0 0 0 0 0 0 0 0 0 0 0 0 0 0 0 0 0 0 0
1 2 3 3 3 4 4 3 1 0 0 0 0 0 0 0 0 0 0 0 0 0 0 0 0 0 0 0 0 0 0 0 0 0 0 0 0 0 0 0 0 0 0
1 2 3 3 4 4 5 4 2 1 1 0 0 0 0 0 0 0 0 0 0 0 0 0 0 0 0 0 0 0 0 0 0 0 0 0 0 0 0 0 0 0 0
0 1 2 3 3 4 5 5 5 4 3 1 1 0 0 0 0 0 0 0 0 0 0 0 0 0 0 0 0 0 0 0 0 0 0 0 0 0 0 0 0 0 0
0 0 1 2 3 3 4 5 6 6 4 2 1 0 0 0 0 0 0 0 0 0 0 0 0 0 0 0 0 0 0 0 0 0 0 0 0 0 0 0 0 0 0
0 0 0 1 1 2 3 3 4 5 4 2 1 0 0 0 0 0 0 0 0 0 0 0 0 0 0 0 0 0 0 0 0 0 0 0 0 0 0 0 0 0 0
0 0 0 0 0 1 1 1 1 2 2 1 0 0 0 0 0 0 0 0 0 0 0 0 0 0 0 0 0 0 0 0 0 0 0 0 0 0 0 0 0 0 0
0 0 0 0 0 0 0 0 0 0 1 1 0 0 0 0 0 0 0 0 0 0 0 0 0 0 0 0 0 0 0 0 0 0 0 0 0 0 0 0 0 0 0
0 0 0 0 0 0 0 0 0 0 0 0 0 0 0 0 0 0 0 0 0 0 0 0 0 0 0 0 0 0 0 0 0 0 0 0 0 0 0 0 0 0 0
0 0 0 0 0 0 0 0 0 0 0 0 0 0 0 0 0 0 0 0 0 0 0 0 0 0 0 0 0 0 0 0 0 0 0 0 0 0 0 0 0 0 0
0 0 0 0 0 0 0 0 0 0 0 0 0 0 0 0 0 0 0 0 0 0 0 0 0 0 0 0 0 0 0 0 0 0 0 0 0 0 0 0 0 0 0
0 0 0 0 0 0 0 0 0 0 0 0 0 0 0 0 0 0 0 0 0 0 0 0 0 0 0 0 0 0 0 0 0 0 0 0 0 0 0 0 0 0 0
0 0 0 0 0 0 0 0 0 0 0 0 0 0 0 0 0 0 0 0 0 0 0 0 0 0 0 0 0 0 0 0 0 0 0 0 0 0 0 0 0 0 0
0 0 0 0 0 0 0 0 0 0 0 0 0 0 0 0 0 0 0 0 0 0 0 0 0 0 0 0 0 0 0 0 0 0 0 0 0 0 0 0 0 0 0
Wind_Speed
6 7 9 8 7 8 8 7 7 7 7 7 7 8 8 7 7 7 7 7 7 7 8 8 8 8 8 8 8 8 8 9 9 9 8 8 8 8 8 7 5 6 8
6 7 10 8 8 8 8 7 7 7 7 7 7 7 7 7 7 7 7 7 7 8 8 7 8 8 8 8 8 8 8 8 8 8 6 6 7 7 7 7 7 6 7
6 8 9 8 8 8 8 7 7 7 7 7 7 7 7 6 6 6 7 7 7 7 7 7 7 7 8 8 7 7 7 7 7 6 2 3 5 6 6 6 6 6 6
7 7 7 8 8 8 8 8 7 6 6 6 6 6 6 6 6 5 5 6 7 7 7 7 7 7 7 7 6 6 6 6 5 2 1 3 4 6 5 5 6 6 6
7 6 7 7 8 8 8 7 7 6 6 6 6 6 6 6 5 5 5 5 6 6 6 6 6 6 6 5 5 5 5 5 3 1 3 3 3 5 5 5 5 5 5
7 7 7 7 7 7 7 7 7 6 6 6 6 6 6 5 5 5 5 5 5 5 5 5 5 5 5 5 4 4 4 3 0 2 2 2 3 4 4 5 5 5 5
6 6 7 6 6 6 6 6 6 6 6 5 5 5 5 5 4 4 4 5 5 5 4 4 4 4 4 4 3 4 4 2 1 1 1 2 3 4 3 4 4 4 4
6 5 6 6 5 6 6 6 5 5 5 5 5 4 4 4 3 3 4 4 4 3 3 3 3 3 3 3 3 3 3 2 1 1 1 2 3 2 3 3 3 3 4
5 5 5 5 5 6 6 6 5 5 4 4 4 4 4 3 3 3 3 3 3 3 3 3 3 3 3 2 3 3 3 2 1 1 1 2 3 2 2 3 3 3 3
4 4 4 4 4 4 5 5 5 4 4 4 4 4 4 3 2 2 2 3 2 2 3 3 3 3 3 3 3 3 2 1 1 0 0 2 3 2 2 2 2 3 3
4 4 3 3 3 3 3 4 4 4 4 3 3 3 2 1 1 1 2 2 2 2 2 2 2 2 2 2 2 2 1 1 1 1 1 2 1 2 2 2 2 3 3
5 4 3 3 3 3 2 2 2 2 3 2 1 2 1 1 0 0 2 2 1 1 1 1 2 1 1 1 1 1 1 1 1 1 0 1 2 2 3 2 2 3 3
5 4 3 3 3 3 2 2 1 1 2 1 1 1 1 1 1 0 0 1 1 1 1 1 1 0 1 1 1 1 1 1 1 1 0 1 2 3 3 3 3 3 3
4 4 3 3 3 3 2 2 2 2 1 1 1 1 1 1 1 0 1 0 0 0 1 1 1 1 1 1 1 1 2 1 1 1 1 2 3 3 4 4 3 3 4
5 4 4 4 3 3 3 2 2 2 2 2 1 2 1 1 1 1 1 1 1 1 1 1 1 1 1 1 2 2 2 2 2 2 0 2 3 4 4 5 4 4 4
5 5 4 4 4 4 3 3 2 2 2 2 1 2 2 1 1 2 2 1 1 1 1 2 2 2 2 2 2 3 3 3 2 3 2 1 2 3 4 5 5 5 5
5 5 5 5 4 4 4 4 2 2 2 2 2 2 2 2 2 2 2 2 1 1 1 1 2 2 2 2 2 2 2 3 3 3 3 3 2 2 3 5 5 5 5
5 5 4 4 5 5 4 4 3 2 2 2 2 2 2 2 3 2 2 2 2 2 2 1 2 2 2 2 2 2 2 3 4 3 3 3 3 2 2 3 4 5 6
5 5 5 4 4 4 4 3 3 2 2 2 2 2 2 2 3 2 2 2 2 2 2 2 2 2 2 2 2 2 2 3 3 3 4 3 3 3 3 2 3 4 5
5 5 5 5 4 4 3 3 2 2 2 2 2 2 3 2 3 2 2 2 2 2 2 2 2 2 2 2 2 3 3 3 3 3 4 3 3 3 3 3 2 2 3
4 5 5 5 4 3 3 3 3 3 2 2 2 3 3 3 3 3 2 2 2 2 3 3 2 2 2 2 3 3 3 4 4 3 3 3 3 3 3 3 2 2 2
4 5 5 5 5 5 4 3 2 2 2 2 2 3 3 3 3 3 3 3 3 3 3 3 3 2 2 2 3 3 3 3 4 3 3 3 3 2 2 3 2 3 3
4 5 5 6 5 5 4 3 2 2 1 2 3 3 3 3 3 4 4 3 3 3 3 4 4 4 3 3 3 3 3 3 2 3 3 3 3 3 3 2 3 3 4
4 4 5 6 6 5 5 5 5 4 4 4 3 3 3 3 3 3 4 4 4 3 4 4 4 4 4 3 3 3 3 3 3 2 2 2 2 3 3 3 3 4 4
3 4 4 5 5 5 6 6 6 5 4 3 3 4 3 3 3 3 3 3 4 3 4 4 4 4 4 4 3 3 3 3 4 4 4 3 2 3 3 3 3 3 4
3 3 4 5 5 5 6 6 6 6 5 4 4 4 3 3 3 3 3 3 4 3 4 4 4 4 4 4 4 3 3 3 3 4 4 4 3 3 3 3 3 3 3
Wind_Direction
155 151 145 144 142 138 132 124 116 108 101 100 98 93 88 82 79 81 78 78 79 78 80 81 81 81 81 77 74 72 70 68 64 63 62 62 62 60 59 55 49 67 59
149 150 141 143 140 142 137 129 121 113 107 103 98 94 89 83 80 81 78 77 78 77 75 80 80 81 79 76 73 71 70 68 64 60 60 72 66 60 58 49 33 52 55
143 143 143 143 142 142 138 134 127 119 113 107 101 98 94 87 82 81 77 75 74 74 73 73 78 80 79 75 72 72 71 69 63 54 43 75 78 67 60 54 49 50 50
141 140 140 138 143 144 142 136 132 126 119 111 101 97 95 89 83 81 78 74 72 73 71 71 72 79 79 77 74 73 73 73 65 29 47 56 63 66 58 53 48 44 43
141 140 133 137 141 142 145 141 135 128 122 113 102 95 96 91 85 79 79 75 77 76 73 73 71 74 78 78 74 72 71 72 64 353 59 56 59 60 48 46 42 42 41
142 142 133 135 139 137 139 141 136 127 120 114 106 99 93 92 86 78 75 75 78 77 75 73 73 71 77 77 75 74 73 72 196 65 62 56 60 58 43 43 42 39 37
142 141 138 134 140 139 135 131 128 124 120 115 109 104 95 90 88 81 74 76 77 75 73 74 74 69 72 74 77 79 70 49 353 63 53 56 58 50 41 42 41 33 28
141 137 135 133 134 137 138 129 123 117 114 112 106 105 98 91 87 85 78 78 79 71 70 75 76 65 63 71 75 77 65 18 17 56 45 57 55 36 36 41 43 30 20
138 138 133 135 139 132 127 125 120 116 112 103 94 89 85 85 83 79 75 76 75 72 69 67 64 57 53 64 72 75 63 9 326 30 36 51 45 24 31 31 32 24 13
143 149 144 139 141 149 147 128 122 115 112 102 88 76 71 78 91 78 80 83 77 68 67 64 58 48 38 53 61 59 49 276 322 5 30 59 25 2 8 3 7 3 4
162 166 162 156 149 151 151 135 138 125 115 118 109 93 103 135 125 120 73 74 74 65 66 64 61 48 24 73 60 42 307 273 302 301 331 37 341 326 328 338 338 341 350
185 183 182 180 169 161 154 157 163 157 149 156 151 143 158 135 91 53 79 77 83 74 90 80 73 65 289 179 124 203 255 269 269 269 33 7 310 304 304 321 324 324 328
196 188 185 188 184 177 174 171 167 163 160 167 161 157 169 159 164 171 144 125 143 198 207 147 202 246 276 276 254 254 280 277 273 274 34 330 297 291 292 299 306 311 309
199 196 189 186 188 190 194 186 179 178 183 186 180 190 194 184 198 203 241 262 257 259 276 265 268 264 264 257 253 255 252 258 262 273 4 334 291 284 286 287 293 298 302
199 199 192 190 192 190 194 200 191 192 191 189 196 198 205 200 204 214 229 238 260 276 265 266 257 257 256 251 247 248 249 252 253 258 274 337 306 290 281 284 282 287 294
207 205 198 196 198 194 198 201 195 194 189 199 194 204 208 208 213 216 221 231 246 259 267 265 264 259 252 248 246 244 250 249 251 255 265 252 291 298 292 288 281 286 291
212 209 202 200 200 201 202 203 197 194 194 201 201 207 215 217 218 225 224 227 239 248 248 262 264 263 261 252 250 253 256 253 254 255 261 264 252 267 296 297 291 292 293
213 209 203 198 202 204 203 203 198 197 195 198 207 208 215 225 226 224 225 226 230 232 235 237 250 254 254 257 261 259 257 254 254 256 256 258 266 266 267 295 296 297 297
212 207 201 197 204 207 205 202 201 199 198 198 205 214 217 223 229 223 224 224 218 223 230 238 243 253 255 260 268 269 264 260 259 256 253 259 263 270 270 277 288 299 304
213 206 202 196 203 201 196 198 199 204 207 208 210 216 220 221 227 227 219 221 220 217 222 232 239 255 261 262 268 271 267 264 258 258 257 256 258 263 267 271 266 274 300
210 204 199 195 193 191 192 194 203 212 214 215 217 217 221 224 222 222 223 213 217 221 225 230 236 239 250 255 255 259 254 246 247 250 254 261 260 263 264 262 273 284 285
211 208 203 199 194 196 205 204 213 219 223 222 224 222 223 224 220 221 222 219 217 223 222 221 226 235 236 243 253 254 249 230 215 236 251 256 260 257 259 264 272 280 286
216 216 208 203 198 200 202 196 182 189 210 219 225 225 224 226 221 224 221 221 220 225 226 224 223 227 232 233 250 255 256 250 268 216 235 242 255 262 264 274 280 280 284
223 220 213 205 199 195 194 199 199 209 218 229 229 229 229 224 222 222 222 220 220 224 230 232 232 235 235 230 231 248 272 293 271 264 221 233 262 269 272 275 277 278 280
220 217 215 203 200 194 196 205 210 217 225 227 224 222 225 219 219 220 224 224 224 227 230 232 236 236 238 239 235 234 238 251 261 262 264 262 267 268 275 273 273 276 281
213 210 216 205 200 199 200 207 216 219 219 220 225 225 224 224 225 222 224 229 230 230 230 229 230 233 235 239 238 236 235 236 243 255 264 266 272 274 275 269 265 269 275